Location: Squirrel Cove
(50.1074°N, 124.9139°W)
Time: 01:55:10
(UTC-08:00)

BlueWalker 3 - Pass Details

Date: 03 December 2022
Orbit: 499 x 517 km, 53.2° (Epoch: 29 January)

Event Time Altitude Azimuth Distance (km) Brightness Sun altitude
Rises 18:45:13 0° 287° (WNW) 2,631 6.7 -22.4°
Reaches altitude 10° 18:47:27 10° 291° (WNW) 1,739 5.5 -22.8°
Enters shadow 18:50:47 55° 328° (NNW) 616 2.4 -23.3°
